Location: Ahausen
(50.4985°N, 8.2722°E)
Time: 14:36:03
(UTC+00:00)

JY1SAT - Pass Details

Date: 08 July 2022
Orbit: 564 x 586 km, 97.6° (Epoch: 18 August)

Event Time Altitude Azimuth Distance (km) Brightness Sun altitude
Exits shadow 20:40:30 - 163° (SSE) 2,055 ? -7.9°
Reaches altitude 10° 20:40:52 10° 163° (SSE) 1,909 ? -7.9°
Maximum altitude 20:45:00 84° 78° (ENE) 596 ? -8.3°
Drops below altitude 10° 20:49:11 10° 348° (NNW) 1,917 ? -8.7°
Sets 20:51:20 0° 347° (NNW) 2,819 ? -8.9°
